Regional Weather Roundup
Issued by NWS

Home | Current Version | Previous Version | Text Only | Print | Product List | Glossary Off
Versions: 1 2 3 4 5 6 7 8 9 10 11 12 13 14 15 16 17 18 19 20 21 22 23 24 25 26 27 28 29 30 31 32 33 34 35 36 37 38 39 40 41 42 43 44 45 46 47 48 49 50

000
ASUS45 KCYS 020810
RWRWY

WYOMING REGIONAL WEATHER ROUNDUP
NATIONAL WEATHER SERVICE CHEYENNE WY
200 AM MDT SUN AUG 02 2015

NOTE:  "FAIR" INDICATES FEW OR NO CLOUDS BELOW 12,000 FEET
WITH NO SIGNIFICANT WEATHER AND/OR OBSTRUCTIONS TO VISIBILITY.

WYZ001-020900-
YELLOWSTONE NATIONAL PARK

CITY           SKY/WX    TMP DP  RH WIND       PRES   REMARKS
LK YELLOWSTONE   N/A     44  34  67 NW3       30.33S
W YELLOWSTONE  NOT AVBL

$$
WYZ002>013-054>058-071-098>099-020900-
NORTHERN WYOMING

CITY           SKY/WX    TMP DP  RH WIND       PRES   REMARKS
JACKSON        NOT AVBL
CODY           FAIR      72  32  23 SW7       30.06F
GREYBULL       FAIR      68  41  37 CALM      29.97S
WORLAND        FAIR      61  22  22 SE5       30.00S
SHERIDAN       FAIR      64  39  39 CALM      29.97R
BUFFALO        FAIR      74  29  19 W10       30.06S
GILLETTE       FAIR      62  33  33 NW6       30.00R
HULETT         FAIR      68  36  30 S3        30.01S
NEWCASTLE      FAIR      64  52  63 CALM      30.02S

$$
WYZ014>020-022>026-101>103-020900-
CENTRAL WYOMING

CITY           SKY/WX    TMP DP  RH WIND       PRES   REMARKS
BIG PINEY      FAIR      53  30  41 W6        30.23F
PINEDALE       FAIR      50  32  50 NW3       30.25S
DUBOIS         FAIR      54  28  37 NW9       30.27S
LANDER         FAIR      66  32  28 VRB3      30.10S
RIVERTON       FAIR      65  33  30 NW14      30.11F
CASPER         FAIR      57  29  34 NW7       30.08S
DOUGLAS        FAIR      63  53  70 CALM      30.07S

$$
WYZ021-027>030-104>119-020900-
SOUTHERN WYOMING

CITY           SKY/WX    TMP DP  RH WIND       PRES   REMARKS
EVANSTON       FAIR      65  28  24 S5        30.24F
KEMMERER       FAIR      57  30  35 N12       30.24F
FORT BRIDGER   SUNNY     61  28  29 SW7       30.25S
ROCK SPRINGS   FAIR      62  25  24 W6        30.18F
DIXON          FAIR      58  37  45 CALM      30.20F
RAWLINS        FAIR      56  35  45 CALM      30.18F
SARATOGA       FAIR      52  32  46 CALM      30.21S
LARAMIE        FAIR      55  48  77 E7        30.23S
CHEYENNE       FAIR      59  52  77 W8        30.16F
TORRINGTON     FAIR      62  54  74 NE7       30.03S
PINE BLUFFS    FAIR      61  52  72 W3        30.10F

$$



USA.gov is the U.S. government's official web portal to all federal, state and local government web resources and services.